Regional Weather Roundup
Issued by NWS

Home | Current Version | Previous Version | Graphics & Text | Print | Product List | Glossary Off
Versions: 1 2 3 4 5 6 7 8 9 10 11 12 13 14 15 16 17 18 19 20 21 22 23 24 25 26 27 28 29 30 31 32 33 34 35 36 37 38 39 40 41 42 43 44 45 46 47 48 49 50

318
ASUS43 KMKX 072300
RWRWI

WISCONSIN REGIONAL WEATHER ROUNDUP
NATIONAL WEATHER SERVICE MILWAUKEE/SULLIVAN WI
500 PM CST SUN FEB 07 2016

NOTE: "FAIR" INDICATES FEW OR NO CLOUDS BELOW 12,000 FEET WITH NO
SIGNIFICANT WEATHER AND/OR OBSTRUCTIONS TO VISIBILITY.

WIZ001-002-006>008-014>016-023>028-080000-
NORTHWEST WISCONSIN

CITY           SKY/WX    TMP DP  RH WIND       PRES   REMARKS
SUPERIOR ARPT  FLURRIES  33  28  83 W8G22     29.54R WCI  26
ASHLAND        CLOUDY    35  33  92 SW9       29.51R WCI  28
HAYWARD        LGT SNOW  33  31  92 SW8       29.52S VSB 1   WCI  26
SIREN          LGT SNOW  33  32  96 W15G21    29.56R WCI  23
CUMBERLAND     LGT SNOW  32  32 100 W12       29.56R WCI  23
RICE LAKE      CLOUDY    35  31  83 W8        29.58S WCI  29
CHETEK         CLOUDY    37  29  74 W7        29.57S WCI  31
LADYSMITH      CLOUDY    37  30  77 SW8       29.56S WCI  30
EAU CLAIRE     NOT AVBL
MENOMONIE      CLOUDY    39  27  63 SW13      29.60R WCI  31
NEW RICHMOND   CLOUDY    37  28  72 W16       29.59S WCI  27
OSCEOLA        LGT RAIN  36  32  87 W13       29.62R WCI  27
$$

WIZ003>005-009-010-017-018-080000-
NORTH CENTRAL WISCONSIN

CITY           SKY/WX    TMP DP  RH WIND       PRES   REMARKS
MANITOWISH WTR FLURRIES  33  32  95 SW9       29.49R WCI  25
ARBOR VITAE    FLURRIES  37  33  88 SW6       29.51R WCI  32
WOODRUFF       FLURRIES  37  33  88 SW6       29.51R WCI  32
RHINELANDER    CLOUDY    34  29  82 SW9       29.53R WCI  27
EAGLE RIVER    FLURRIES  33  32  96 SW7       29.50S WCI  27
LAND O LAKES   LGT SNOW  33  33  97 SW3       29.50S
PHILLIPS       CLOUDY    33  31  92 SW6       29.52R WCI  28
TOMAHAWK       CLOUDY    35  28  78 SW6       29.54R WCI  30
MEDFORD        CLOUDY    36  27  71 W10G16    29.55R WCI  28
MERRILL        CLOUDY    37  28  72 W8        29.56S WCI  30
$$

WIZ029-030-035-036-043>047-080000-
CENTRAL WISCONSIN

CITY           SKY/WX    TMP DP  RH WIND       PRES   REMARKS
WAUSAU         CLOUDY    39  27  62 W10       29.56R WCI  32
MOSINEE        NOT AVBL
MARSHFIELD     CLOUDY    38  24  57 W15       29.58R WCI  29
STEVENS POINT  CLOUDY    37  26  63 SW12      29.59R WCI  30
WAUPACA        CLOUDY    41  29  61 SW8       29.60S
WAUTOMA        NOT AVBL
WISC RAPIDS    CLOUDY    39  23  52 W10G20    29.62R WCI  32
CAMP DOUGLAS   NOT AVBL
$$

WIZ011>013-019>022-031-037>040-048>050-080000-
NORTHEAST WISCONSIN

CITY           SKY/WX    TMP DP  RH WIND       PRES   REMARKS
ANTIGO         CLOUDY    35  28  78 SW12      29.55S WCI  26
SHAWANO        CLOUDY    41  29  64 SW6       29.59R
OCONTO         CLOUDY    38  31  75 SW3       29.59S
STURGEON BAY   CLOUDY    37  28  70 SW7       29.63R WCI  32
GREEN BAY      CLOUDY    38  30  73 S3        29.61S
MANITOWOC      NOT AVBL
APPLETON       MOCLDY    37  28  70 VRB5      29.59S WCI  34
CLINTONVILLE   CLOUDY    37  28  70 SW3       29.59S
OSHKOSH        MOCLDY    39  28  64 SW8       29.62R WCI  33
$$

WIZ032>034-041-042-053>061-080000-
SOUTHWEST WISCONSIN

CITY           SKY/WX    TMP DP  RH WIND       PRES   REMARKS
LA CROSSE      CLOUDY    39  26  59 SW13      29.66S WCI  31
SPARTA         CLOUDY    38  27  63 W8G18     29.65S WCI  32
VIROQUA        CLOUDY    36  27  71 W15       29.66S WCI  26
BOSCOBEL       PTCLDY    40  27  59 W9        29.71S WCI  34
PRAIRIE DU CHI PTCLDY    39  26  58 W13       29.72S WCI  32
PLATTEVILLE    CLEAR     39  28  66 W14G23    29.72R WCI  30
$$

WIZ056-057-062-063-064-067-068-080000-
SOUTH CENTRAL WISCONSIN

CITY           SKY/WX    TMP DP  RH WIND       PRES   REMARKS
REEDSBURG      CLEAR     37  27  65 W12       29.66S WCI  30
BARABOO/DELLS  CLEAR     38  25  58 W17G23    29.65R WCI  29
LONE ROCK      NOT AVBL
MINERAL POINT  CLEAR     37  28  70 W17G23    29.69S WCI  28
MADISON        PTCLDY    38  26  62 SW8       29.67R WCI  32
MIDDLETON      CLEAR     40  28  62 SW13      29.67S WCI  32
WATERTOWN      CLEAR     39  28  65 SW12      29.66S WCI  32
MONROE         CLEAR     37  28  70 W23G35    29.71R WCI  26
JANESVILLE     CLEAR     41  28  60 W13       29.71R
$$

WIZ051-052-058>065-066-070>072-080000-
SOUTHEAST WISCONSIN

CITY           SKY/WX    TMP DP  RH WIND       PRES   REMARKS
MILWAUKEE      PTCLDY    42  28  57 W18G24    29.68R
WAUKESHA       PTCLDY   N/A N/A N/A SW13      29.68R
MILWAUKEE/TIMM CLEAR     41  27  56 W9G17     29.68R
RACINE         CLEAR     42  30  62 SW10      29.70R
BURLINGTON     CLEAR     39  29  68 W9        29.69R WCI  33
KENOSHA        CLEAR     40  31  70 W14G23    29.69R WCI  32
FOND DU LAC    PTCLDY    39  29  67 SW8       29.64R WCI  33
SHEBOYGAN      CLOUDY    39  29  67 SW10      29.64S WCI  32
WEST BEND      CLEAR     39  30  70 SW10      29.65R WCI  32
JUNEAU         CLEAR     38  30  71 SW12      29.66S WCI  31
$$

LSZ147-162-080000-
LAKE SUPERIOR

STATION/POSITION TIME  TEMP    WIND        PRES    WAVE
                       AIR SEA DIR/SP/G            HT/PER
                 (UTC) (F)     (DEG/KT/KT) (MB)    (FT/S)
DEVILS ISLAND    2200   35     240/ 18/ 22  998.5R
PORT WING        2200   36     230/  6/ 13  999.0R
SAXON HARBOR     2200   37                  998.6R
$$

LMZ867-665-643>646-080000-
LAKE MICHIGAN

STATION/POSITION TIME  TEMP    WIND        PRES    WAVE
                       AIR SEA DIR/SP/G            HT/PER
                 (UTC) (F)     (DEG/KT/KT) (MB)    (FT/S)
CHAMBERS ISLAND  2200   38     190/  6/ 10 1002.4R
NORTHPORT PIER   2200   40     220/  2/  7 1002.0R
KEWAUNEE LAKESHO 2200   39     220/  6/  9 1002.3R
SHEBOYGAN LAKESH 2200   43     240/ 12/ 15 1004.4R
PORT WASHINGTON  2200   44     260/ 12/ 16 1005.1
MILWAUKEE LAKESH 2210   44     240/ 15/ 18   N/A
KENOSHA   LAKESH 2200   44     240/ 13/ 21 1005.4S
$$

TC  - TEMPERATURE IN CELSIUS
VSB - VISIBILITY IN STATUTE MILES
WCI - WIND CHILL INDEX
HX  - HEAT INDEX





USA.gov is the U.S. government's official web portal to all federal, state and local government web resources and services.